Regional Weather Roundup
Issued by NWS Sioux Falls, SD

Home | Current Version | Previous Version | Graphics & Text | Print | Product List | Glossary On
Versions: 1 2 3 4 5 6 7 8 9 10 11 12 13 14 15 16 17 18 19 20 21 22 23 24 25 26 27 28 29 30 31 32 33 34 35 36 37 38 39 40 41 42 43 44 45 46 47 48 49 50
000
ASUS43 KFSD 041602
RWRFSD

WEATHER ROUNDUP FOR SE SOUTH DAKOTA/SW MINNESOTA/NW IOWA
NATIONAL WEATHER SERVICE SIOUX FALLS SD
1100 AM CDT FRI SEP 04 2015

NOTE: "FAIR" INDICATES FEW OR NO CLOUDS BELOW 12,000 FEET WITH NO
SIGNIFICANT WEATHER AND OR OBSTRUCTIONS TO VISIBILITY.


SDZ038>040-050-052>070-041700-
SOUTHEAST SOUTH DAKOTA

CITY           SKY/WX    TMP DP  RH WIND       PRES   REMARKS
BROOKINGS      PTSUNNY   79  70  73 S8        29.90S
CHAMBERLAIN    MOSUNNY   78  68  71 SE12G23   29.78S
HURON          CLOUDY    74  69  85 SE7       29.81R
MADISON        FAIR      77  73  88 SE5       29.87F
MITCHELL       CLOUDY    80  67  64 S12       29.81S
SIOUX FALLS    PTSUNNY   79  69  71 S6        29.86F
WINNER         FAIR      82  63  52 S12       29.79S
YANKTON        CLOUDY    73  64  73 S7        29.83S
$$

MNZ071-072-080-081-089-090-097-098-041700-
SOUTHWEST MINNESOTA

CITY           SKY/WX    TMP DP  RH WIND       PRES   REMARKS
FAIRMONT       SUNNY     81  66  61 SE15      29.90S
JACKSON        MOSUNNY   81  70  69 S12       29.91R
LUVERNE        MOSUNNY   79  68  69 SE5       29.89S
MARSHALL       PTSUNNY   81  66  61 SW10      29.89R
MONTEVIDEO     PTSUNNY   84  72  65 W9        29.88R
PIPESTONE      MOSUNNY   81  68  65 SW8       29.90R
REDWOOD FALLS  MOSUNNY   84  71  65 S8        29.86R
TRACY          PTSUNNY   79  71  74 SW12      29.89R
WINDOM         MOSUNNY   81  68  65 S8        29.90R
WORTHINGTON    PTSUNNY   79  68  69 S10       29.90R
$$

IAZ001>003-012>014-020>022-031-032-NEZ013-014-SDZ071-041700-
NORTHWEST IOWA

CITY           SKY/WX    TMP DP  RH WIND       PRES   REMARKS
DENISON        CLOUDY    77  70  78 S13       29.90F
ESTHERVILLE    MOSUNNY   78  70  76 S14       29.91S
SIOUX CITY     LGT RAIN  73  67  81 S8        29.87R
SPENCER        PTSUNNY   82  69  64 SE13      29.90R
$$

ABBREVIATIONS USED IN REMARKS
   TC - TEMPERATURE IN CELSIUS
  WCI - WIND CHILL INDEX
   HX - HEAT INDEX
  VSB - VISIBILITY




USA.gov is the U.S. government's official web portal to all federal, state and local government web resources and services.